Location: Monteux
(44.0348°N, 4.9972°E)
Time: 16:39:16
(UTC+00:00)

BREEZE-M DEB (TANK) - Pass Details

Date: 30 November 2020
Orbit: 305 x 17162 km, 49.4° (Epoch: 22 January)

Event Time Altitude Azimuth Distance (km) Brightness Sun altitude
Rises 16:35:48 0° 262° (W) 2,612 8.1 -6.0°
Reaches altitude 10° 16:38:16 10° 271° (W) 1,328 6.0 -6.4°
Maximum altitude 16:40:30 36° 343° (NNW) 504 2.6 -6.8°
Drops below altitude 10° 16:42:40 10° 56° (NE) 1,291 4.1 -7.1°
Enters shadow 16:42:46 - 57° (ENE) 1,339 4.1 -7.2°
